SCP
0 0 0 0 0 0 -0 -0 0 0 0 1 1 0 0 0 0 0 0 0 0 0
0 0 0 0 0 -0 -0 0 0 1 1 1 0 0 0 0 0 0 0 0 0 0
0 0 0 0 0 0 -0 -0 0 0 0 0 0 0 0 0 0 0 0 0 0 0
-0 0 0 0 0 0 0 0 0 0 0 0 0 0 0 0 0 0 0 0 0 0
0 0 0 0 0 0 1 0 0 0 0 0 0 0 0 0 0 0 0 0 0 0
-0 0 0 0 0 1 0 0 0 0 0 0 0 0 0 0 0 0 0 0 0 0
-0 0 0 0 1 0 0 0 0 0 0 0 0 0 0 0 0 0 0 0 0 0
0 0 0 1 0 0 0 0 0 0 0 0 0 0 0 0 0 0 0 0 0 0
0 0 1 0 0 0 0 0 0 0 0 0 0 0 0 0 0 0 0 0 0 0
0 1 0 0 0 0 0 0 0 0 0 0 0 0 0 0 0 0 0 0 0 0
1 0 0 0 0 0 0 0 0 0 0 0 0 0 0 0 0 0 0 0 0 0
1 0 0 0 0 0 0 0 0 0 0 0 0 0 0 0 0 0 0 0 0 0
0 0 0 0 0 0 0 0 0 0 0 0 0 0 0 0 0 0 0 0 0 0
0 0 0 0 0 0 0 0 0 0 0 0 0 0 0 0 0 0 0 0 0 0
Wind_Speed_500mb
52 49 45 38 36 38 39 37 30 26 33 36 35 39 40 38 40 35 36 39 39 37
53 50 46 38 37 38 37 33 32 34 38 33 39 38 37 38 36 38 40 38 36 35
52 46 41 37 35 35 33 30 30 29 27 33 31 35 38 36 39 40 38 35 32 31
50 44 39 38 35 34 32 28 22 22 28 27 31 35 34 36 38 36 31 27 26 28
50 43 38 36 34 34 34 30 26 25 22 27 31 34 33 37 34 28 24 23 26 30
51 43 39 36 35 37 36 28 23 21 25 27 33 31 34 35 27 23 22 23 26 30
51 43 40 35 36 39 31 26 24 24 23 29 30 28 31 27 23 21 21 23 24 28
50 46 42 39 38 37 31 29 31 23 27 29 25 26 26 23 20 20 20 19 21 23
55 51 48 44 41 39 32 36 31 26 29 27 23 23 24 19 19 17 15 17 19 19
52 55 55 51 45 41 36 38 32 30 29 23 20 18 19 18 16 13 13 16 20 19
56 58 61 58 50 43 43 41 35 30 25 20 15 13 15 18 12 10 12 18 18 19
65 65 68 64 54 46 48 41 36 28 23 18 13 10 13 12 9 10 14 15 16 21
69 69 70 63 54 46 47 41 36 30 23 17 13 10 12 12 11 12 14 14 17 22
63 64 64 61 53 48 47 41 36 29 23 17 13 9 11 13 14 13 11 11 15 19
Wind_Direction_500mb
240 248 255 263 276 283 287 288 284 290 302 308 311 317 318 322 324 331 332 329 326 324
240 248 256 263 274 280 281 281 275 281 298 307 315 318 319 323 324 325 325 326 327 328
242 248 255 260 266 273 273 277 279 279 290 307 309 315 318 319 322 324 327 330 332 334
241 245 251 255 258 259 261 267 265 276 293 300 309 313 313 319 322 324 328 332 334 336
239 242 243 246 247 247 250 256 267 275 286 297 305 309 318 322 322 325 332 335 337 335
236 237 237 239 241 239 242 252 254 260 281 295 300 307 320 320 321 329 330 333 334 338
233 233 233 234 237 235 234 239 242 256 273 287 296 311 319 318 323 324 326 331 335 339
232 229 229 229 234 230 226 243 235 251 276 285 295 311 316 321 320 320 325 333 340 348
233 227 228 226 228 226 231 234 229 255 270 276 294 310 320 325 317 324 337 340 348 352
231 224 224 223 224 226 229 227 234 250 258 269 293 311 327 323 322 329 337 344 344 342
223 219 221 219 219 222 224 225 231 239 248 267 285 307 326 325 333 335 342 334 336 342
222 217 217 215 215 215 222 220 228 230 243 256 277 300 328 347 346 343 334 335 341 342
222 218 215 214 212 214 218 217 214 223 233 244 267 294 344 348 343 342 342 345 345 341
221 217 213 209 208 213 210 210 213 221 227 240 260 293 338 343 345 346 356 351 349 342
Wind_Speed_850mb
52 49 45 38 36 38 39 37 30 26 33 36 35 39 40 38 40 35 36 39 39 37
53 50 46 38 37 38 37 33 32 34 38 33 39 38 37 38 36 38 40 38 36 35
52 46 41 37 35 35 33 30 30 29 27 33 31 35 38 36 39 40 38 35 32 31
50 44 39 38 35 34 32 28 22 22 28 27 31 35 34 36 38 36 31 27 26 28
50 43 38 36 34 34 34 30 26 25 22 27 31 34 33 37 34 28 24 23 26 30
51 43 39 36 35 37 36 28 23 21 25 27 33 31 34 35 27 23 22 23 26 30
51 43 40 35 36 39 31 26 24 24 23 29 30 28 31 27 23 21 21 23 24 28
50 46 42 39 38 37 31 29 31 23 27 29 25 26 26 23 20 20 20 19 21 23
55 51 48 44 41 39 32 36 31 26 29 27 23 23 24 19 19 17 15 17 19 19
52 55 55 51 45 41 36 38 32 30 29 23 20 18 19 18 16 13 13 16 20 19
56 58 61 58 50 43 43 41 35 30 25 20 15 13 15 18 12 10 12 18 18 19
65 65 68 64 54 46 48 41 36 28 23 18 13 10 13 12 9 10 14 15 16 21
69 69 70 63 54 46 47 41 36 30 23 17 13 10 12 12 11 12 14 14 17 22
63 64 64 61 53 48 47 41 36 29 23 17 13 9 11 13 14 13 11 11 15 19
Wind_Direction_850mb
240 248 255 263 276 283 287 288 284 290 302 308 311 317 318 322 324 331 332 329 326 324
240 248 256 263 274 280 281 281 275 281 298 307 315 318 319 323 324 325 325 326 327 328
242 248 255 260 266 273 273 277 279 279 290 307 309 315 318 319 322 324 327 330 332 334
241 245 251 255 258 259 261 267 265 276 293 300 309 313 313 319 322 324 328 332 334 336
239 242 243 246 247 247 250 256 267 275 286 297 305 309 318 322 322 325 332 335 337 335
236 237 237 239 241 239 242 252 254 260 281 295 300 307 320 320 321 329 330 333 334 338
233 233 233 234 237 235 234 239 242 256 273 287 296 311 319 318 323 324 326 331 335 339
232 229 229 229 234 230 226 243 235 251 276 285 295 311 316 321 320 320 325 333 340 348
233 227 228 226 228 226 231 234 229 255 270 276 294 310 320 325 317 324 337 340 348 352
231 224 224 223 224 226 229 227 234 250 258 269 293 311 327 323 322 329 337 344 344 342
223 219 221 219 219 222 224 225 231 239 248 267 285 307 326 325 333 335 342 334 336 342
222 217 217 215 215 215 222 220 228 230 243 256 277 300 328 347 346 343 334 335 341 342
222 218 215 214 212 214 218 217 214 223 233 244 267 294 344 348 343 342 342 345 345 341
221 217 213 209 208 213 210 210 213 221 227 240 260 293 338 343 345 346 356 351 349 342